STARLINK-33796, 63515

Orbit data source: Space-Track

STARLINK-33796, 63515 is a payload satellite owned by SpaceX/Seattle (US) in LEO that was launched on Mon, 07 Apr 2025 UTC via an FALCON 9 launch vehicle from the Air Force Western Test Range (AFWTR). Payload-class satellites include a variety of spacecraft equipped with specific instruments for various scientific and technological missions. These include communications satellites like Starlink; space stations such as the ISS; scientific satellites like the Hubble; Earth observation satellites from companies like Planet Labs, Umbra, and HawkEye 360; GPS; miniature CubeSats for education and research; and military/defense satellites.

Loading next visibility...
Identifier
63515, 2025-071Y
Orbit
LEO
Country
Flag of USUS
Related business
Manufacturer
SpaceX/Seattle
Mission
Operational Commercial Communications
Bus & Motor
STARLINK V2MO, Unknown motor
Mass
575 kg wet, ~530 kg dry
Launch date (UTC)
2025-04-07 (7 months ago)
Launch vehicle
FALCON 9
Launch site
Air Force Western Test Range (AFWTR)
Object type
Payload
Rocket body
Debris
Shape & HBR
Box + 2 Pan, 17.7 m
Radar Cross Section
36.964 m², Large (>1 m²)

Expand to show TLE details & history
Last TLE update: 1 day ago

TLE from 1 day ago
0 STARLINK-33796
1 63515U 25071Y   25302.93753840  .00054154  00000-0  18272-2 0  9997
2 63515  53.1581  27.0371 0001011  78.0932 282.0182 15.30200225 32757
Epoch: 2025-10-29T22:30Z
TLE epoch observation values (Epoch: 2025-10-29T22:30:03.317Z)
Latitude
-0.00004°
Longitude
11.01974°
Altitude
475.97 km
Speed
7.629 km/s
True Right ascension
01h 48m 08s
True Declination
0° 00' 00"
Sunlit
Object was in full shadow at epoch
Visualization orbit readout
Latitude
Unknown
Longitude
Unknown
Altitude
Unknown
Speed
Unknown
Apparent Right ascension
Unknown
Apparent Declination
Unknown
Sunlit
N/A
Visualization observer readout
Local Sidereal Time
19:25:21
Azimuth
Unknown
Elevation
Unknown
Doppler factor
Unknown
Orbital elements
Apogee altitude
476.164 km
Perigee altitude
474.778 km
Semi-major axis
6,853.608 km
Eccentricity
0.0001
Inclination
53.1581°
RAAN
27.0371°
Arg. of periapsis
78.0932°
True anomaly
282.00687°
Mean anomaly
282.0182°
Eccentric anomaly
282.01253°
Mean motion
3.82529 °/min
Orbital period
94.11 mins
BSTAR
0.0018272
Loading maneuver chart data...
Computing Atmospheric mass density...
Loading historical data...
Loading historical data...
Loading historical data...
Loading historical data...
Loading historical data...
Loading historical data...
Loading historical data...

Documentation

Showing up to 5 results
|